Location: Oshawa
(43.9000°N, 78.8670°W)
Time: 14:53:16
(UTC-04:00)

Iridium 54 - Visible Passes

Search period start: 01 October 2016 00:00
Search period end: 11 October 2016 00:00
Orbit: 776 x 779 km, 86.4° (Epoch: 30 September)

Date Brightness Start Highest point End Pass type
(mag) Time Alt. Az. Time Alt. Az. Time Alt. Az.
01 Oct 6.7 19:12:39 10° NNW 19:17:42 51° W 19:22:44 10° SSW visible
02 Oct 7.2 06:30:32 10° SSE 06:35:19 39° E 06:40:08 10° NNE visible
02 Oct 9.1 20:22:32 10° WNW 20:24:07 11° WNW 20:25:42 10° W visible
03 Oct 8.3 05:58:06 10° SE 06:02:02 22° E 06:05:59 10° NNE visible
03 Oct 8.5 19:47:12 10° NNW 19:50:58 21° W 19:54:45 10° SW visible
04 Oct 9.0 05:26:50 10° E 05:28:53 12° ENE 05:30:56 10° NE visible
04 Oct 7.5 19:12:58 10° NNW 19:17:43 36° W 19:22:26 10° SSW visible
05 Oct 6.4 06:30:16 10° SSE 06:35:20 55° E 06:40:26 10° NNE visible
06 Oct 7.6 05:57:28 10° SE 06:01:59 31° E 06:06:31 10° NNE visible
06 Oct 8.7 19:48:06 10° NW 19:50:52 15° WNW 19:53:37 10° WSW visible
07 Oct 8.5 05:25:22 10° ESE 05:28:45 18° ENE 05:32:09 10° NE visible
07 Oct 8.2 19:13:26 10° NNW 19:17:41 26° W 19:21:54 10° SW visible
08 Oct 5.7 06:30:12 10° S 06:35:24 79° E 06:40:38 10° N visible
09 Oct 6.8 05:57:04 10° SSE 06:01:58 44° E 06:06:54 10° NNE visible
10 Oct 7.9 05:24:30 10° SE 05:28:40 25° E 05:32:51 10° NNE visible
10 Oct 8.5 19:14:07 10° NW 19:17:36 18° WNW 19:21:04 10° WSW visible
